When you browse on this site, cookies collect data to enhance your experience and personalize the content and advertising you see.
Visit our Privacy Policy to learn more. By continuing to use the site, you agree to this use of cookies and data.
  • In Hungary
  • List of Countries
  • For 7 days
  • Water Temperature
  • Satellite Maps
  • Weather Map
  • News
  • Weather Widgets
  • user-avatar
    Login

    Hourly Weather Bednarzowka

    Today, 20 May, Monday

    Time Temperature Precipitation Wind Pressure Humidity
    00:00 +17°C° 0 mm 4 mps 743 mmHg 95%
    01:00 +17°C° 0 mm 4 mps 742 mmHg 95%
    02:00 +17°C° 0 mm 4 mps 742 mmHg 96%
    03:00 +17°C° 0.6 mm 4 mps 742 mmHg 96%
    04:00 +16°C° 0.6 mm 5 mps 742 mmHg 97%
    05:00 +16°C° 0.6 mm 5 mps 741 mmHg 97%
    06:00 +17°C° 0.3 mm 5 mps 741 mmHg 95%
    07:00 +19°C° 0.3 mm 6 mps 741 mmHg 93%
    08:00 +20°C° 0 mm 7 mps 741 mmHg 91%
    09:00 +20°C° 0 mm 6 mps 742 mmHg 88%
    10:00 +21°C° 0 mm 6 mps 742 mmHg 85%
    11:00 +22°C° 0 mm 5 mps 742 mmHg 83%
    12:00 +23°C° 0.8 mm 5 mps 742 mmHg 79%
    13:00 +24°C° 0.8 mm 6 mps 741 mmHg 75%
    14:00 +24°C° 0 mm 6 mps 741 mmHg 74%
    15:00 +23°C° 3 mm 5 mps 741 mmHg 78%
    16:00 +22°C° 3 mm 4 mps 741 mmHg 82%
    17:00 +21°C° 3 mm 3 mps 741 mmHg 87%
    18:00 +20°C° 0.2 mm 3 mps 741 mmHg 89%
    19:00 +19°C° 0.2 mm 2 mps 741 mmHg 90%
    20:00 +19°C° 0.2 mm 2 mps 741 mmHg 92%
    21:00 +18°C° 0 mm 2 mps 741 mmHg 93%
    22:00 +18°C° 0 mm 2 mps 741 mmHg 94%
    23:00 +17°C° 0 mm 2 mps 741 mmHg 94%

    Tomorrow, 21 May, Tuesday

    Time Temperature Precipitation Wind Pressure Humidity
    00:00 +17°C° 0.5 mm 2 mps 741 mmHg 95%
    01:00 +17°C° 0.5 mm 2 mps 741 mmHg 95%
    02:00 +16°C° 0.5 mm 2 mps 741 mmHg 95%
    03:00 +16°C° 0 mm 2 mps 741 mmHg 95%
    04:00 +16°C° 0 mm 2 mps 741 mmHg 96%
    05:00 +16°C° 0 mm 3 mps 741 mmHg 96%
    06:00 +16°C° 0 mm 3 mps 740 mmHg 95%
    07:00 +17°C° 0 mm 4 mps 740 mmHg 93%
    08:00 +17°C° 0 mm 5 mps 740 mmHg 91%
    09:00 +17°C° 0.1 mm 5 mps 740 mmHg 89%
    10:00 +17°C° 0.1 mm 5 mps 740 mmHg 86%
    11:00 +19°C° 0.1 mm 5 mps 740 mmHg 84%
    12:00 +19°C° 0.6 mm 6 mps 739 mmHg 83%
    13:00 +18°C° 0.6 mm 7 mps 739 mmHg 83%
    14:00 +18°C° 0.6 mm 7 mps 739 mmHg 82%
    15:00 +18°C° 0.1 mm 7 mps 739 mmHg 80%
    16:00 +17°C° 0.1 mm 7 mps 739 mmHg 79%
    17:00 +16°C° 0.1 mm 7 mps 739 mmHg 77%
    18:00 +16°C° 0 mm 7 mps 739 mmHg 78%
    19:00 +15°C° 0 mm 6 mps 739 mmHg 79%
    20:00 +14°C° 0 mm 6 mps 739 mmHg 80%
    21:00 +14°C° 0 mm 6 mps 739 mmHg 81%
    22:00 +13°C° 0 mm 6 mps 739 mmHg 82%
    23:00 +13°C° 0 mm 6 mps 739 mmHg 83%

    Day after tomorrow, 22 May, Wednesday

    Time Temperature Precipitation Wind Pressure Humidity
    00:00 +13°C° 0 mm 6 mps 739 mmHg 84%
    01:00 +13°C° 0 mm 6 mps 739 mmHg 84%
    02:00 +13°C° 0 mm 6 mps 739 mmHg 85%
    03:00 +13°C° 0 mm 6 mps 739 mmHg 86%
    04:00 +13°C° 0 mm 5 mps 739 mmHg 87%
    05:00 +13°C° 0 mm 5 mps 739 mmHg 88%
    06:00 +13°C° 0.1 mm 5 mps 739 mmHg 90%
    07:00 +13°C° 0.1 mm 4 mps 739 mmHg 91%
    08:00 +14°C° 0.1 mm 4 mps 739 mmHg 92%
    09:00 +14°C° 0 mm 4 mps 740 mmHg 90%
    10:00 +15°C° 0 mm 5 mps 740 mmHg 87%
    11:00 +16°C° 0 mm 5 mps 740 mmHg 84%
    12:00 +16°C° 0.1 mm 5 mps 740 mmHg 82%
    13:00 +16°C° 0.1 mm 5 mps 740 mmHg 79%
    14:00 +18°C° 0.1 mm 4 mps 740 mmHg 77%
    15:00 +18°C° 0 mm 4 mps 740 mmHg 76%
    16:00 +18°C° 0 mm 3 mps 740 mmHg 76%
    17:00 +18°C° 0 mm 3 mps 740 mmHg 75%
    18:00 +18°C° 0 mm 2 mps 740 mmHg 79%
    19:00 +17°C° 0 mm 2 mps 740 mmHg 83%
    20:00 +16°C° 0 mm 2 mps 740 mmHg 87%
    21:00 +15°C° 0 mm 2 mps 741 mmHg 89%
    22:00 +14°C° 0 mm 2 mps 741 mmHg 91%
    23:00 +14°C° 0 mm 2 mps 741 mmHg 94%

    23 May, Thursday

    Time Temperature Precipitation Wind Pressure Humidity
    00:00 +13°C° 0 mm 1 mps 741 mmHg 94%
    01:00 +13°C° 0 mm 1 mps 741 mmHg 95%
    02:00 +12°C° 0 mm 1 mps 741 mmHg 95%
    03:00 +12°C° 0 mm 1 mps 742 mmHg 95%
    04:00 +12°C° 0 mm 1 mps 742 mmHg 96%
    05:00 +12°C° 0 mm 1 mps 742 mmHg 96%
    06:00 +14°C° 0 mm 1 mps 742 mmHg 91%
    07:00 +15°C° 0 mm 1 mps 742 mmHg 87%
    08:00 +17°C° 0 mm 2 mps 743 mmHg 83%
    09:00 +18°C° 0.6 mm 2 mps 743 mmHg 81%
    10:00 +18°C° 0.6 mm 2 mps 743 mmHg 80%
    11:00 +19°C° 0.6 mm 2 mps 743 mmHg 79%
    12:00 +20°C° 1.4 mm 3 mps 743 mmHg 78%
    13:00 +20°C° 1.4 mm 4 mps 743 mmHg 77%
    14:00 +21°C° 1.4 mm 4 mps 743 mmHg 77%
    15:00 +20°C° 1.9 mm 5 mps 743 mmHg 81%
    16:00 +19°C° 1.9 mm 6 mps 743 mmHg 84%
    17:00 +17°C° 1.9 mm 7 mps 744 mmHg 88%
    18:00 +16°C° 1.5 mm 7 mps 744 mmHg 90%
    19:00 +15°C° 1.5 mm 6 mps 744 mmHg 92%
    20:00 +14°C° 1.5 mm 6 mps 744 mmHg 93%
    21:00 +13°C° 0.4 mm 6 mps 744 mmHg 93%
    22:00 +11°C° 0.4 mm 6 mps 745 mmHg 93%
    23:00 +10°C° 0.4 mm 6 mps 745 mmHg 93%

    24 May, Friday

    Time Temperature Precipitation Wind Pressure Humidity
    00:00 +10°C° 0.2 mm 5 mps 745 mmHg 92%
    01:00 +9°C° 0.2 mm 5 mps 745 mmHg 91%
    02:00 +9°C° 0.2 mm 5 mps 745 mmHg 90%
    03:00 +8°C° 0.2 mm 5 mps 745 mmHg 89%
    04:00 +8°C° 0.2 mm 4 mps 745 mmHg 88%
    05:00 +8°C° 0.2 mm 4 mps 745 mmHg 86%
    06:00 +8°C° 0.1 mm 4 mps 745 mmHg 85%
    07:00 +8°C° 0.1 mm 4 mps 745 mmHg 85%
    08:00 +10°C° 0.1 mm 4 mps 745 mmHg 84%
    09:00 +11°C° 0 mm 4 mps 745 mmHg 82%
    10:00 +12°C° 0 mm 4 mps 745 mmHg 79%
    11:00 +13°C° 0 mm 4 mps 745 mmHg 77%
    12:00 +14°C° 0 mm 4 mps 745 mmHg 73%
    13:00 +17°C° 0 mm 4 mps 745 mmHg 68%
    14:00 +18°C° 0 mm 4 mps 744 mmHg 64%
    15:00 +18°C° 0 mm 4 mps 744 mmHg 65%
    16:00 +18°C° 0 mm 4 mps 744 mmHg 65%
    17:00 +19°C° 0 mm 3 mps 744 mmHg 66%
    18:00 +18°C° 0 mm 3 mps 744 mmHg 70%
    19:00 +17°C° 0 mm 2 mps 743 mmHg 75%
    20:00 +16°C° 0 mm 2 mps 743 mmHg 79%
    21:00 +15°C° 0 mm 2 mps 743 mmHg 80%
    22:00 +14°C° 0 mm 2 mps 743 mmHg 82%
    23:00 +13°C° 0 mm 2 mps 744 mmHg 84%

    25 May, Saturday

    Time Temperature Precipitation Wind Pressure Humidity
    00:00 +13°C° 0 mm 2 mps 743 mmHg 86%
    01:00 +12°C° 0 mm 2 mps 743 mmHg 89%
    02:00 +10°C° 0 mm 2 mps 743 mmHg 91%
    03:00 +10°C° 0 mm 2 mps 743 mmHg 92%
    04:00 +11°C° 0 mm 1 mps 743 mmHg 92%
    05:00 +10°C° 0 mm 1 mps 744 mmHg 92%
    06:00 +12°C° 0 mm 1 mps 744 mmHg 86%
    07:00 +14°C° 0 mm 1 mps 744 mmHg 80%
    08:00 +15°C° 0 mm 0 mps 744 mmHg 74%
    09:00 +18°C° 0 mm 1 mps 744 mmHg 68%
    10:00 +19°C° 0 mm 1 mps 744 mmHg 63%
    11:00 +19°C° 0 mm 2 mps 744 mmHg 57%
    12:00 +20°C° 0 mm 2 mps 743 mmHg 56%
    13:00 +21°C° 0 mm 2 mps 743 mmHg 55%
    14:00 +21°C° 0 mm 2 mps 743 mmHg 53%
    15:00 +21°C° 0 mm 3 mps 743 mmHg 55%
    16:00 +21°C° 0 mm 3 mps 742 mmHg 56%
    17:00 +21°C° 0 mm 3 mps 742 mmHg 57%
    18:00 +20°C° 0 mm 3 mps 742 mmHg 64%
    19:00 +18°C° 0 mm 2 mps 742 mmHg 70%
    20:00 +17°C° 0 mm 2 mps 742 mmHg 76%
    21:00 +16°C° 0 mm 2 mps 742 mmHg 81%
    22:00 +15°C° 0 mm 2 mps 742 mmHg 85%
    23:00 +14°C° 0 mm 2 mps 743 mmHg 89%
    Show more